timestamp,surface_pressure_avg,surface_temp_avg,battery_voltage,lat,long
2021-08-10 00:09:01+00:00,355.8647,16.6,13.05,47.84626,-54.09684
2021-08-10 00:19:01+00:00,356.4045,16.62,12.73,47.84626,-54.09684
2021-08-10 00:29:01+00:00,354.8612,16.69,12.73,47.84626,-54.09684
2021-08-10 00:39:01+00:00,359.1295,16.5,12.73,47.84626,-54.09684
2021-08-10 00:49:01+00:00,359.8297,16.5,12.73,47.84626,-54.09684
2021-08-10 00:59:01+00:00,355.2347,16.5,12.73,47.84626,-54.09684
2021-08-10 01:09:01+00:00,352.7913,16.5,12.73,47.84626,-54.09684
2021-08-10 01:19:01+00:00,352.4696,16.43,12.73,47.84626,-54.09684
2021-08-10 01:29:01+00:00,348.9763,16.43,12.73,47.84626,-54.09684
2021-08-10 01:39:01+00:00,343.8112,16.45,12.73,47.84626,-54.09684
2021-08-10 01:49:01+00:00,340.708,16.47,12.73,47.84626,-54.09684
2021-08-10 01:59:01+00:00,337.5964,16.49,12.73,47.84626,-54.09684
2021-08-10 02:09:01+00:00,331.5847,17.06,12.73,47.84626,-54.09684
2021-08-10 02:19:01+00:00,328.1979,17.3,12.73,47.84626,-54.09684
2021-08-10 02:29:01+00:00,325.0179,17.39,12.73,47.84626,-54.09684
2021-08-10 02:39:01+00:00,316.968,17.42,12.73,47.84626,-54.09684
2021-08-10 02:49:01+00:00,310.2214,17.48,12.73,47.84626,-54.09684
2021-08-10 02:59:01+00:00,304.973,17.5,12.73,47.84626,-54.09684
2021-08-10 03:09:01+00:00,295.798,17.5,12.73,47.84626,-54.09684
2021-08-10 03:19:01+00:00,285.2247,17.5,12.73,47.84626,-54.09684
2021-08-10 03:29:01+00:00,279.1981,17.5,12.73,47.84626,-54.09684
2021-08-10 03:39:01+00:00,272.7331,17.5,12.73,47.84626,-54.09684
2021-08-10 03:49:01+00:00,260.223,17.5,12.73,47.84626,-54.09684
2021-08-10 03:59:01+00:00,251.8214,17.42,12.73,47.84626,-54.09684
2021-08-10 04:09:01+00:00,246.2581,17.4,12.73,47.84626,-54.09684
2021-08-10 04:19:00+00:00,239.0531,17.4,12.73,47.84626,-54.09684
2021-08-10 04:29:00+00:00,227.3047,17.37,12.73,47.84626,-54.09684
2021-08-10 04:39:00+00:00,218.8231,17.38,12.73,47.84626,-54.09684
2021-08-10 04:49:00+00:00,212.7081,17.39,12.73,47.84626,-54.09684
2021-08-10 04:59:00+00:00,202.8848,17.39,12.73,47.84626,-54.09684
2021-08-10 05:09:00+00:00,195.8081,17.4,12.73,47.84626,-54.09684
2021-08-10 05:19:00+00:00,193.5248,17.4,12.73,47.84626,-54.09684
2021-08-10 05:29:00+00:00,187.4915,17.4,12.73,47.84626,-54.09684
2021-08-10 05:39:00+00:00,179.7365,17.3,12.73,47.84626,-54.09684
2021-08-10 05:49:00+00:00,176.9615,17.3,12.73,47.84626,-54.09684
2021-08-10 05:59:00+00:00,175.0565,17.3,12.73,47.84626,-54.09684
2021-08-10 06:09:00+00:00,170.4148,17.36,12.73,47.84626,-54.09684
2021-08-10 06:19:00+00:00,167.5898,17.39,12.73,47.84626,-54.09684
2021-08-10 06:29:00+00:00,169.5215,17.4,12.73,47.84626,-54.09684
2021-08-10 06:39:00+00:00,169.0298,17.4,12.73,47.84626,-54.09684
2021-08-10 06:49:00+00:00,166.8165,17.4,12.73,47.84626,-54.09684
2021-08-10 06:59:00+00:00,170.6031,17.4,12.73,47.84626,-54.09684
2021-08-10 07:09:00+00:00,173.9182,17.4,12.73,47.84626,-54.09684
2021-08-10 07:19:01+00:00,174.9398,17.3,12.65,47.84626,-54.09684
2021-08-10 07:29:01+00:00,177.7365,17.3,12.65,47.84626,-54.09684
2021-08-10 07:39:01+00:00,180.4698,17.3,12.65,47.84626,-54.09684
2021-08-10 07:49:01+00:00,184.1631,17.3,12.65,47.84626,-54.09684
2021-08-10 07:59:01+00:00,188.1631,17.34,12.65,47.84626,-54.09684
2021-08-10 08:09:01+00:00,190.8031,17.4,12.65,47.84626,-54.09684
2021-08-10 08:19:01+00:00,194.4931,17.46,12.65,47.84626,-54.09684
2021-08-10 08:29:01+00:00,198.7248,17.5,12.65,47.84626,-54.09684
2021-08-10 08:39:01+00:00,203.0147,17.5,12.65,47.84626,-54.09684
2021-08-10 08:49:01+00:00,205.4598,17.5,12.65,47.84626,-54.09684
2021-08-10 08:59:01+00:00,206.0164,17.5,12.65,47.84626,-54.09684
2021-08-10 09:09:01+00:00,209.9365,17.5,12.65,47.84626,-54.09684
2021-08-10 09:19:00+00:00,217.2164,17.51,12.65,47.84626,-54.09684
2021-08-10 09:29:00+00:00,221.5248,17.55,12.65,47.84626,-54.09684
2021-08-10 09:39:00+00:00,225.9464,17.54,12.65,47.84626,-54.09684
2021-08-10 09:49:00+00:00,233.9364,17.55,12.65,47.84626,-54.09684
2021-08-10 09:59:00+00:00,242.5147,17.56,12.65,47.84626,-54.09684
2021-08-10 10:09:00+00:00,247.4998,17.58,12.65,47.84626,-54.09684
2021-08-10 10:19:01+00:00,254.0098,17.55,12.89,47.84626,-54.09684
2021-08-10 10:29:01+00:00,259.6347,17.55,12.89,47.84626,-54.09684
2021-08-10 10:39:01+00:00,266.0913,17.56,12.89,47.84626,-54.09684
2021-08-10 10:49:01+00:00,270.4597,17.58,12.89,47.84626,-54.09684
2021-08-10 10:59:01+00:00,279.403,17.59,12.89,47.84626,-54.09684
2021-08-10 11:09:01+00:00,286.1581,17.6,12.89,47.84626,-54.09684
2021-08-10 11:19:01+00:00,294.918,17.6,13.44,47.84626,-54.09684
2021-08-10 11:29:01+00:00,301.7914,17.6,13.44,47.84626,-54.09684
2021-08-10 11:39:01+00:00,310.9497,17.5,13.44,47.84626,-54.09684
2021-08-10 11:49:01+00:00,314.8013,17.5,13.44,47.84626,-54.09684
2021-08-10 11:59:01+00:00,318.5397,17.49,13.44,47.84626,-54.09684
2021-08-10 12:09:01+00:00,319.7263,17.44,13.44,47.84626,-54.09684
2021-08-10 12:19:01+00:00,322.7046,17.4,14.32,47.84626,-54.09684
2021-08-10 12:29:01+00:00,324.2531,17.4,14.32,47.84626,-54.09684
2021-08-10 12:39:01+00:00,325.3881,17.43,14.32,47.84626,-54.09684
2021-08-10 12:49:01+00:00,326.6879,17.48,14.32,47.84626,-54.09684
2021-08-10 12:59:01+00:00,329.5012,17.5,14.32,47.84626,-54.09684
2021-08-10 13:09:01+00:00,330.6279,17.5,14.32,47.84626,-54.09684
2021-08-10 13:19:01+00:00,331.2463,17.52,14.4,47.84626,-54.09684
2021-08-10 13:29:01+00:00,326.8213,17.57,14.4,47.84626,-54.09684
2021-08-10 13:39:01+00:00,325.078,17.6,14.4,47.84626,-54.09684
2021-08-10 13:49:01+00:00,324.423,17.6,14.4,47.84626,-54.09684
2021-08-10 13:59:01+00:00,320.1797,17.65,14.4,47.84626,-54.09684
2021-08-10 14:09:01+00:00,313.9664,17.7,14.4,47.84626,-54.09684
2021-08-10 14:19:01+00:00,312.598,17.7,14.4,47.84626,-54.09684
2021-08-10 14:29:01+00:00,310.3364,17.71,14.4,47.84626,-54.09684
2021-08-10 14:39:01+00:00,303.33799999999997,17.77,14.4,47.84626,-54.09684
2021-08-10 14:49:01+00:00,297.543,17.79,14.4,47.84626,-54.09684
2021-08-10 14:59:01+00:00,296.2681,17.77,14.4,47.84626,-54.09684
2021-08-10 15:09:01+00:00,290.138,17.79,14.4,47.84626,-54.09684
2021-08-10 15:19:01+00:00,279.1463,17.79,14.32,47.84626,-54.09684
2021-08-10 15:29:01+00:00,273.1765,17.74,14.32,47.84626,-54.09684
2021-08-10 15:39:01+00:00,268.9514,17.75,14.32,47.84626,-54.09684
2021-08-10 15:49:01+00:00,260.7698,17.74,14.32,47.84626,-54.09684
2021-08-10 15:59:01+00:00,249.6964,17.73,14.32,47.84626,-54.09684
2021-08-10 16:09:01+00:00,243.4964,17.7,14.32,47.84626,-54.09684
2021-08-10 16:19:01+00:00,237.4181,17.7,14.24,47.84626,-54.09684
2021-08-10 16:29:01+00:00,228.2564,17.7,14.24,47.84626,-54.09684
2021-08-10 16:39:01+00:00,220.5864,17.68,14.24,47.84626,-54.09684
2021-08-10 16:49:01+00:00,214.8547,17.68,14.24,47.84626,-54.09684
2021-08-10 16:59:01+00:00,206.9064,17.7,14.24,47.84626,-54.09684
2021-08-10 17:09:01+00:00,200.2781,17.77,14.24,47.84626,-54.09684
2021-08-10 17:19:01+00:00,196.8631,17.87,14.08,47.84626,-54.09684
2021-08-10 17:29:01+00:00,192.0714,17.9,14.08,47.84626,-54.09684
2021-08-10 17:39:01+00:00,183.8098,17.89,14.08,47.84626,-54.09684
2021-08-10 17:49:01+00:00,178.2831,17.97,14.08,47.84626,-54.09684
2021-08-10 17:59:01+00:00,177.3382,18.0,14.08,47.84626,-54.09684
2021-08-10 18:09:01+00:00,173.9748,18.1,14.08,47.84626,-54.09684
2021-08-10 18:19:01+00:00,169.4981,18.1,13.92,47.84626,-54.09684
2021-08-10 18:29:01+00:00,166.7348,18.14,13.92,47.84626,-54.09684
2021-08-10 18:39:01+00:00,165.7198,18.17,13.92,47.84626,-54.09684
2021-08-10 18:49:01+00:00,164.7332,18.19,13.92,47.84626,-54.09684
2021-08-10 18:59:01+00:00,165.6481,18.2,13.92,47.84626,-54.09684
2021-08-10 19:09:01+00:00,168.7215,18.2,13.92,47.84626,-54.09684
2021-08-10 19:19:01+00:00,171.2798,18.2,13.76,47.84626,-54.09684
2021-08-10 19:29:01+00:00,172.1581,18.24,13.76,47.84626,-54.09684
2021-08-10 19:39:01+00:00,172.8564,18.3,13.76,47.84626,-54.09684
2021-08-10 19:49:01+00:00,177.4465,18.38,13.76,47.84626,-54.09684
2021-08-10 19:59:01+00:00,183.2598,18.4,13.76,47.84626,-54.09684
2021-08-10 20:09:01+00:00,187.6815,18.39,13.76,47.84626,-54.09684
2021-08-10 20:19:01+00:00,190.8714,18.34,13.68,47.84626,-54.09684
2021-08-10 20:29:01+00:00,196.3881,18.3,13.68,47.84626,-54.09684
2021-08-10 20:39:01+00:00,203.4848,18.3,13.68,47.84626,-54.09684
2021-08-10 20:49:01+00:00,210.0614,18.3,13.68,47.84626,-54.09684
2021-08-10 20:59:01+00:00,214.2581,18.3,13.68,47.84626,-54.09684
2021-08-10 21:09:01+00:00,219.2548,18.3,13.68,47.84626,-54.09684
2021-08-10 21:19:01+00:00,225.0048,18.3,13.68,47.84626,-54.09684
2021-08-10 21:29:01+00:00,230.6481,18.3,13.68,47.84626,-54.09684
2021-08-10 21:39:01+00:00,236.3764,18.3,13.68,47.84626,-54.09684
2021-08-10 21:49:01+00:00,242.0481,18.3,13.68,47.84626,-54.09684
2021-08-10 21:59:01+00:00,248.3114,18.3,13.68,47.84626,-54.09684
2021-08-10 22:09:01+00:00,253.6131,18.3,13.68,47.84626,-54.09684
2021-08-10 22:19:01+00:00,261.0981,18.3,13.44,47.84626,-54.09684
2021-08-10 22:29:01+00:00,271.7848,18.3,13.44,47.84626,-54.09684
2021-08-10 22:39:01+00:00,280.2097,18.3,13.44,47.84626,-54.09684
2021-08-10 22:49:01+00:00,286.5364,18.3,13.44,47.84626,-54.09684
2021-08-10 22:59:01+00:00,294.6714,18.3,13.44,47.84626,-54.09684
2021-08-10 23:09:01+00:00,304.6813,18.3,13.44,47.84626,-54.09684
2021-08-10 23:19:01+00:00,312.408,18.29,13.05,47.84626,-54.09684
2021-08-10 23:29:01+00:00,317.883,18.28,13.05,47.84626,-54.09684
2021-08-10 23:39:01+00:00,323.728,18.25,13.05,47.84626,-54.09684
2021-08-10 23:49:01+00:00,328.483,18.21,13.05,47.84626,-54.09684
2021-08-10 23:59:01+00:00,333.8414,18.21,13.05,47.84626,-54.09684
